WN4MDN Weather Reports


Display with metric or nautical units.
time (UTC)temp
F
wind
direction
speed
MPH
gust
MPH
rain 1hr
in
rain 24hr
in
rain mn
in
humidity
%
barometer
mb
20260508161033 83 11 2.0 10.0 0.00 0.00 0.00 71 1015.9
20260508160533 83 292 5.0 10.0 0.00 0.00 0.00 73 1015.9
20260508160048 83 301 3.0 10.0 0.00 0.00 0.00 71 1015.9
20260508155533 83 120 2.0 9.0 0.00 0.00 0.00 70 1016.0
20260508155033 83 276 4.0 9.0 0.00 0.00 0.00 73 1016.0
20260508154556 83 296 4.0 9.0 0.00 0.00 0.00 72 1016.0
20260508154034 82 315 1.0 9.0 0.00 0.00 0.00 73 1016.0
20260508153533 82 342 4.0 9.0 0.00 0.00 0.00 75 1016.1
20260508153047 81 31 3.0 8.0 0.00 0.00 0.00 75 1016.1
20260508152533 80 334 2.0 8.0 0.00 0.00 0.00 76 1016.2
20260508152032 80 285 6.0 9.0 0.00 0.00 0.00 77 1016.2
20260508151554 80 246 2.0 9.0 0.00 0.00 0.00 76 1016.2
20260508151033 80 302 5.0 9.0 0.00 0.00 0.00 76 1016.2
20260508150537 80 290 2.0 8.0 0.00 0.00 0.00 78 1016.2
20260508150052 79 298 5.0 8.0 0.00 0.00 0.00 79 1016.3
20260508145532 79 292 4.0 10.0 0.00 0.00 0.00 78 1016.3
20260508145033 79 311 3.0 10.0 0.00 0.00 0.00 80 1016.2
20260508144551 79 319 6.0 10.0 0.00 0.00 0.00 79 1016.2
20260508144035 79 321 4.0 10.0 0.00 0.00 0.00 80 1016.2
20260508143533 79 271 4.0 13.0 0.00 0.00 0.00 80 1016.2
20260508143054 78 291 6.0 13.0 0.00 0.00 0.00 81 1016.2
20260508142533 78 286 6.0 13.0 0.00 0.00 0.00 82 1016.2
20260508142033 78 280 5.0 11.0 0.00 0.00 0.00 81 1016.3
20260508141600 78 308 7.0 11.0 0.00 0.00 0.00 82 1016.4
20260508141033 78 288 6.0 10.0 0.00 0.00 0.00 82 1016.2
20260508140532 78 321 6.0 10.0 0.00 0.00 0.00 82 1016.3
20260508140106 78 280 5.0 11.0 0.00 0.00 0.00 82 1016.3
20260508135535 78 296 7.0 11.0 0.00 0.00 0.00 84 1016.3
20260508135034 77 340 6.0 11.0 0.00 0.00 0.00 83 1016.3
20260508134549 77 329 6.0 10.0 0.00 0.00 0.00 83 1016.2
20260508134034 76 355 2.0 10.0 0.00 0.00 0.00 83 1016.1
20260508133534 76 309 5.0 10.0 0.00 0.00 0.00 83 1016.2
20260508133049 75 267 5.0 8.0 0.00 0.00 0.00 83 1016.1
20260508132534 75 325 5.0 8.0 0.00 0.00 0.00 84 1016.1
20260508132035 75 301 3.0 8.0 0.00 0.00 0.00 84 1016.1
20260508131553 74 318 2.0 5.0 0.00 0.00 0.00 85 1016.1
20260508131033 73 285 2.0 4.0 0.00 0.00 0.00 86 1016.2
20260508130532 72 250 1.0 3.0 0.00 0.00 0.00 87 1016.1
20260508130046 72 307 1.0 3.0 0.00 0.00 0.00 88 1016.1
20260508125535 71 215 0.0 3.0 0.00 0.00 0.00 89 1016.1
20260508125035 70 297 1.0 3.0 0.00 0.00 0.00 90 1016.1
20260508124542 69 223 0.0 3.0 0.00 0.00 0.00 91 1016.0
20260508124034 69 222 0.0 3.0 0.00 0.00 0.00 91 1016.0
20260508123538 68 236 0.0 3.0 0.00 0.00 0.00 92 1016.0
20260508123047 67 234 1.0 3.0 0.00 0.00 0.00 92 1016.1
20260508122534 67 232 0.0 3.0 0.00 0.00 0.00 92 1016.0
20260508122037 67 194 0.0 2.0 0.00 0.00 0.00 92 1016.1
20260508121544 66 173 0.0 2.0 0.00 0.00 0.00 92 1016.0
20260508121034 66 0 0.0 1.0 0.00 0.00 0.00 93 1016.0
20260508120535 65 0 0.0 1.0 0.00 0.00 0.00 93 1016.0
20260508120056 64 0 0.0 1.0 0.00 0.00 0.00 92 1016.0
20260508115535 64 0 0.0 0.0 0.00 0.00 0.00 93 1015.9
20260508115034 64 0 0.0 0.0 0.00 0.00 0.00 92 1015.7
20260508114546 64 0 0.0 1.0 0.00 0.00 0.00 92 1015.5
20260508114034 63 0 0.0 1.0 0.00 0.00 0.00 92 1015.5
20260508113535 63 0 0.0 0.0 0.00 0.00 0.00 92 1015.4
20260508113057 62 0 0.0 0.0 0.00 0.00 0.00 93 1015.3
20260508112534 62 0 0.0 0.0 0.00 0.00 0.00 92 1015.3
20260508112034 61 0 0.0 0.0 0.00 0.00 0.00 92 1015.2
20260508111558 61 0 0.0 0.0 0.00 0.00 0.00 92 1015.1
20260508111035 61 0 0.0 0.0 0.00 0.00 0.00 92 1015.0
20260508110536 60 0 0.0 0.0 0.00 0.00 0.00 92 1015.1
20260508110057 60 0 0.0 0.0 0.00 0.00 0.00 92 1015.1
20260508105536 60 0 0.0 0.0 0.00 0.00 0.00 91 1014.9
20260508105034 60 0 0.0 0.0 0.00 0.00 0.00 92 1014.8
20260508104540 60 0 0.0 0.0 0.00 0.00 0.00 91 1014.8
20260508104036 60 0 0.0 0.0 0.00 0.00 0.00 91 1014.7
20260508103532 60 0 0.0 0.0 0.00 0.00 0.00 91 1014.7
20260508103104 60 0 0.0 2.0 0.00 0.00 0.00 91 1014.6
20260508102534 60 0 0.0 2.0 0.00 0.00 0.00 91 1014.5
20260508102035 61 0 0.0 2.0 0.00 0.00 0.00 91 1014.4
20260508101549 60 172 1.0 2.0 0.00 0.00 0.00 91 1014.3
20260508101035 60 172 0.0 0.0 0.00 0.00 0.00 91 1014.3
20260508100534 60 0 0.0 0.0 0.00 0.00 0.00 91 1014.2
20260508100042 60 0 0.0 0.0 0.00 0.00 0.00 91 1014.2
20260508095535 60 0 0.0 0.0 0.00 0.00 0.00 91 1014.0
20260508095035 61 0 0.0 0.0 0.00 0.00 0.00 90 1014.0
20260508094602 61 0 0.0 0.0 0.00 0.00 0.00 90 1014.0
20260508094034 61 0 0.0 0.0 0.00 0.00 0.00 91 1014.0
20260508093532 61 0 0.0 0.0 0.00 0.00 0.00 91 1014.0
20260508093043 61 0 0.0 0.0 0.00 0.00 0.00 91 1013.9
20260508092533 61 0 0.0 0.0 0.00 0.00 0.00 90 1014.0
20260508092036 61 0 0.0 0.0 0.00 0.00 0.00 91 1013.9
20260508091546 61 0 0.0 0.0 0.00 0.00 0.00 91 1013.9
20260508091035 61 0 0.0 0.0 0.00 0.00 0.00 91 1013.9
20260508090536 60 0 0.0 0.0 0.00 0.00 0.00 90 1013.8
20260508090058 60 0 0.0 0.0 0.00 0.00 0.00 90 1013.7
20260508085534 61 0 0.0 0.0 0.00 0.00 0.00 90 1013.8
20260508085034 61 0 0.0 0.0 0.00 0.00 0.00 90 1013.8
20260508084543 61 0 0.0 0.0 0.00 0.00 0.00 90 1013.8
20260508084035 61 0 0.0 0.0 0.00 0.00 0.00 90 1013.8
20260508083533 61 0 0.0 0.0 0.00 0.00 0.00 90 1013.8
20260508083053 61 0 0.0 0.0 0.00 0.00 0.00 90 1013.7
20260508082532 61 0 0.0 2.0 0.00 0.00 0.00 89 1013.7
20260508082035 61 0 0.0 2.0 0.00 0.00 0.00 89 1013.7
20260508081551 61 223 1.0 2.0 0.00 0.00 0.00 89 1013.6
20260508081038 61 173 1.0 2.0 0.00 0.00 0.00 89 1013.7
20260508080538 61 0 0.0 1.0 0.00 0.00 0.00 89 1013.7
20260508080049 61 0 0.0 1.0 0.00 0.00 0.00 89 1013.7
20260508075532 62 0 0.0 1.0 0.00 0.00 0.00 89 1013.8
20260508075034 62 0 0.0 1.0 0.00 0.00 0.00 89 1013.9
20260508074551 62 0 0.0 2.0 0.00 0.00 0.00 88 1014.0
20260508074035 62 0 0.0 2.0 0.00 0.00 0.00 88 1014.0
20260508073535 62 172 0.0 2.0 0.00 0.00 0.00 88 1014.1
20260508073046 62 0 0.0 2.0 0.00 0.00 0.00 89 1014.1
20260508072534 62 0 1.0 2.0 0.00 0.00 0.00 88 1014.1
20260508072034 62 252 0.0 1.0 0.00 0.00 0.00 88 1014.0
20260508071545 62 0 0.0 1.0 0.00 0.00 0.00 88 1014.0
20260508071034 62 0 0.0 2.0 0.00 0.00 0.00 88 1014.1
20260508070535 62 0 0.0 2.0 0.00 0.00 0.00 88 1014.1
20260508070047 62 221 1.0 2.0 0.00 0.00 0.00 89 1014.2
20260508065535 62 274 0.0 1.0 0.00 0.00 0.00 89 1014.3
20260508065032 62 0 0.0 2.0 0.00 0.00 0.00 89 1014.2
20260508064554 62 0 0.0 2.0 0.00 0.00 0.00 89 1014.2
20260508064032 62 274 1.0 3.0 0.00 0.00 0.00 89 1014.3
20260508063535 62 274 1.0 3.0 0.00 0.00 0.00 89 1014.3
20260508063041 62 274 2.0 3.0 0.00 0.00 0.00 88 1014.3
20260508062534 63 274 2.0 3.0 0.00 0.00 0.00 88 1014.2
20260508062035 63 274 2.0 3.0 0.00 0.00 0.00 88 1014.3
20260508061549 63 233 0.0 2.0 0.00 0.00 0.00 87 1014.3
20260508061035 64 0 0.0 0.0 0.00 0.00 0.00 86 1014.4
20260508060534 64 0 0.0 0.0 0.00 0.00 0.00 86 1014.4
20260508060045 64 0 0.0 0.0 0.00 0.00 0.00 86 1014.4
20260508055534 64 0 0.0 0.0 0.00 0.00 0.00 85 1014.5
20260508055034 64 0 0.0 0.0 0.00 0.00 0.00 85 1014.5
20260508054545 64 0 0.0 0.0 0.00 0.00 0.00 85 1014.5
20260508054034 64 0 0.0 0.0 0.00 0.00 0.00 85 1014.5
20260508053535 64 0 0.0 0.0 0.00 0.00 0.00 85 1014.5
20260508053042 65 0 0.0 0.0 0.00 0.00 0.00 85 1014.5
20260508052534 65 0 0.0 0.0 0.00 0.00 0.00 85 1014.6
20260508052039 65 0 0.0 0.0 0.00 0.00 0.00 85 1014.6
20260508051552 65 0 0.0 0.0 0.00 0.00 0.00 85 1014.7
20260508051035 65 0 0.0 0.0 0.00 0.00 0.00 85 1014.7
20260508050535 65 0 0.0 0.0 0.00 0.00 0.00 85 1014.7
20260508050045 65 0 0.0 0.0 0.00 0.00 0.00 85 1014.7
20260508045533 65 0 0.0 1.0 0.00 0.00 0.00 85 1014.6
20260508045034 66 0 0.0 2.0 0.00 0.00 0.00 85 1014.6
20260508044543 66 0 0.0 2.0 0.00 0.00 0.00 85 1014.6
20260508044042 66 0 0.0 2.0 0.00 0.00 0.00 85 1014.5
20260508043533 66 0 0.0 0.0 0.00 0.00 0.00 85 1014.7
20260508043049 66 0 0.0 3.0 0.00 0.00 0.00 86 1014.5
20260508042534 66 0 0.0 3.0 0.00 0.00 0.00 87 1014.5
20260508042035 66 152 1.0 3.0 0.00 0.00 0.00 87 1014.4
20260508041546 67 0 0.0 2.0 0.00 0.00 0.00 87 1014.5
20260508041034 67 0 0.0 2.0 0.00 0.00 0.00 87 1014.5
20260508040535 67 0 1.0 3.0 0.00 0.00 0.00 88 1014.4
20260508040049 67 224 1.0 3.0 0.00 0.00 0.00 88 1014.5
20260508035535 67 0 0.0 1.0 0.00 0.00 0.00 87 1014.5
20260508035035 68 0 0.0 2.0 0.00 0.00 0.00 87 1014.5
20260508034549 68 224 0.0 2.0 0.00 0.00 0.00 87 1014.6
20260508034033 68 224 1.0 2.0 0.00 0.00 0.00 87 1014.6
20260508033534 68 0 0.0 0.0 0.00 0.00 0.00 86 1014.7
20260508033049 68 0 0.0 0.0 0.00 0.00 0.00 86 1014.6
20260508032535 68 0 0.0 0.0 0.00 0.00 0.00 85 1014.7
20260508032037 69 0 0.0 0.0 0.00 0.00 0.00 85 1014.5
20260508031543 69 0 0.0 0.0 0.00 0.00 0.00 85 1014.5
20260508031034 70 0 0.0 0.0 0.00 0.00 0.00 84 1014.4
20260508030534 70 0 0.0 0.0 0.00 0.00 0.00 84 1014.4
20260508030048 71 0 0.0 2.0 0.00 0.00 0.00 84 1014.3
20260508025532 71 0 0.0 2.0 0.00 0.00 0.00 83 1014.3
20260508025034 72 0 0.0 2.0 0.00 0.00 0.00 83 1014.4
20260508024550 72 0 0.0 1.0 0.00 0.00 0.00 83 1014.4
20260508024034 73 0 0.0 3.0 0.00 0.00 0.00 82 1014.4
20260508023533 73 0 0.0 3.0 0.00 0.00 0.00 82 1014.4
20260508023049 74 280 1.0 3.0 0.00 0.00 0.00 81 1014.3
20260508022534 74 0 0.0 2.0 0.00 0.00 0.00 81 1014.3
20260508022035 75 111 0.0 2.0 0.00 0.00 0.00 81 1014.2
20260508021546 75 0 0.0 2.0 0.00 0.00 0.00 80 1014.2
20260508021034 76 0 0.0 2.0 0.00 0.00 0.00 78 1014.1
20260508020536 76 105 0.0 2.0 0.00 0.00 0.00 77 1014.1
20260508020044 76 105 1.0 2.0 0.00 0.00 0.00 77 1014.1
20260508015534 76 134 1.0 3.0 0.00 0.00 0.00 77 1014.1
20260508015032 76 0 0.0 3.0 0.00 0.00 0.00 77 1014.2
20260508014554 76 138 0.0 4.0 0.00 0.00 0.00 77 1014.1
20260508014038 76 128 1.0 4.0 0.00 0.00 0.00 78 1014.2
20260508013533 75 119 2.0 8.0 0.00 0.00 0.00 79 1014.1
20260508013047 74 114 1.0 8.0 0.00 0.00 0.00 79 1014.0
20260508012536 76 284 6.0 8.0 0.00 0.00 0.00 77 1014.1
20260508012034 77 0 0.0 3.0 0.00 0.00 0.00 75 1013.8
20260508011547 77 0 0.0 4.0 0.00 0.00 0.00 75 1013.6
20260508011033 77 172 0.0 4.0 0.00 0.00 0.00 76 1013.6
20260508010537 77 77 1.0 4.0 0.00 0.00 0.00 76 1013.6
20260508010045 77 0 1.0 3.0 0.00 0.00 0.00 76 1013.6
20260508005535 77 29 1.0 4.0 0.00 0.00 0.00 76 1013.4
20260508005036 77 29 2.0 4.0 0.00 0.00 0.00 74 1013.4
20260508004549 78 29 3.0 4.0 0.00 0.00 0.00 73 1013.4
20260508004035 79 65 0.0 3.0 0.00 0.00 0.00 71 1013.3
20260508003535 80 0 0.0 3.0 0.00 0.00 0.00 71 1013.3
20260508003058 80 168 1.0 3.0 0.00 0.00 0.00 70 1013.2
20260508002534 81 168 1.0 3.0 0.00 0.00 0.00 69 1013.2
20260508002035 81 156 0.0 3.0 0.00 0.00 0.00 68 1013.0
20260508001547 82 155 1.0 4.0 0.00 0.00 0.00 67 1013.1
20260508001034 82 163 1.0 4.0 0.00 0.00 0.00 65 1013.1
20260508000536 83 176 1.0 3.0 0.00 0.00 0.00 64 1013.1
20260508000046 84 0 0.0 4.0 0.00 0.00 0.00 62 1013.1
20260507235537 84 176 1.0 4.0 0.00 0.00 0.00 61 1013.0
20260507235034 85 174 1.0 4.0 0.00 0.00 0.00 59 1012.9
20260507234548 86 173 1.0 4.0 0.00 0.00 0.00 58 1012.9
20260507234034 87 170 2.0 4.0 0.00 0.00 0.00 55 1012.9
20260507233536 89 181 0.0 3.0 0.00 0.00 0.00 53 1012.9
20260507233052 89 0 0.0 2.0 0.00 0.00 0.00 54 1012.9
20260507232533 89 0 0.0 3.0 0.00 0.00 0.00 54 1012.9
20260507232035 89 0 0.0 3.0 0.00 0.00 0.00 56 1012.8
20260507231546 89 227 0.0 4.0 0.00 0.00 0.00 55 1012.8
20260507231034 89 0 1.0 4.0 0.00 0.00 0.00 55 1012.8
20260507230534 89 241 2.0 6.0 0.00 0.00 0.00 53 1012.8
20260507230050 89 230 1.0 7.0 0.00 0.00 0.00 53 1012.8
20260507225536 89 236 3.0 7.0 0.00 0.00 0.00 51 1012.7
20260507225035 90 227 3.0 5.0 0.00 0.00 0.00 50 1012.6
20260507224610 90 248 2.0 6.0 0.00 0.00 0.00 49 1012.5
20260507224034 91 238 2.0 7.0 0.00 0.00 0.00 50 1012.6
20260507223611 91 183 1.0 8.0 0.00 0.00 0.00 50 1012.5
20260507223056 90 211 3.0 8.0 0.00 0.00 0.00 50 1012.6
20260507222534 91 240 3.0 8.0 0.00 0.00 0.00 50 1012.6
20260507222035 91 215 2.0 8.0 0.00 0.00 0.00 51 1012.5
20260507221548 91 234 2.0 11.0 0.00 0.00 0.00 52 1012.5
20260507221034 91 254 3.0 11.0 0.00 0.00 0.00 51 1012.5
20260507220539 91 175 3.0 10.0 0.00 0.00 0.00 50 1012.6
20260507220052 91 206 4.0 10.0 0.00 0.00 0.00 51 1012.6
20260507215535 91 248 2.0 8.0 0.00 0.00 0.00 51 1012.6
20260507215035 91 237 3.0 8.0 0.00 0.00 0.00 52 1012.7
20260507214552 91 275 2.0 10.0 0.00 0.00 0.00 53 1012.5
20260507214035 90 178 3.0 10.0 0.00 0.00 0.00 53 1012.6
20260507213536 90 148 1.0 11.0 0.00 0.00 0.00 55 1012.6
20260507213050 90 170 4.0 11.0 0.00 0.00 0.00 55 1012.6
20260507212534 89 142 4.0 10.0 0.00 0.00 0.00 55 1012.6
20260507212034 89 250 2.0 8.0 0.00 0.00 0.00 57 1012.7
20260507211559 88 226 3.0 8.0 0.00 0.00 0.00 55 1012.8
20260507211035 89 240 4.0 8.0 0.00 0.00 0.00 55 1012.9
20260507210534 90 208 1.0 5.0 0.00 0.00 0.00 55 1012.9
20260507210044 89 167 1.0 11.0 0.00 0.00 0.00 56 1012.8
20260507205535 89 104 4.0 12.0 0.00 0.00 0.00 55 1012.9
20260507205037 89 194 7.0 12.0 0.00 0.00 0.00 56 1012.9
20260507204544 89 284 4.0 10.0 0.00 0.00 0.00 53 1013.0
20260507204038 89 291 4.0 10.0 0.00 0.00 0.00 59 1012.9
20260507203532 88 0 2.0 8.0 0.00 0.00 0.00 57 1013.0
20260507203047 88 173 1.0 9.0 0.00 0.00 0.00 56 1013.0
20260507202534 89 146 2.0 10.0 0.00 0.00 0.00 55 1013.0
20260507202034 88 147 4.0 10.0 0.00 0.00 0.00 55 1013.0
20260507201542 88 107 3.0 11.0 0.00 0.00 0.00 55 1013.0
20260507201038 89 147 4.0 11.0 0.00 0.00 0.00 55 1013.2
20260507200535 89 130 7.0 11.0 0.00 0.00 0.00 54 1013.0
20260507200054 90 157 5.0 10.0 0.00 0.00 0.00 57 1013.2
20260507195534 90 153 2.0 10.0 0.00 0.00 0.00 55 1013.3
20260507195034 90 143 4.0 9.0 0.00 0.00 0.00 56 1013.4
20260507194543 90 123 1.0 12.0 0.00 0.00 0.00 56 1013.6
20260507194037 90 163 4.0 13.0 0.00 0.00 0.00 57 1013.7
20260507193535 90 176 5.0 13.0 0.00 0.00 0.00 56 1013.8
20260507193049 89 175 4.0 13.0 0.00 0.00 0.00 57 1013.8
20260507192534 89 156 6.0 13.0 0.00 0.00 0.00 56 1013.9
20260507192032 89 148 2.0 8.0 0.00 0.00 0.00 58 1014.0
20260507191550 89 28 2.0 8.0 0.00 0.00 0.00 57 1014.1
20260507191035 89 136 3.0 8.0 0.00 0.00 0.00 56 1014.3
20260507190532 89 259 3.0 11.0 0.00 0.00 0.00 60 1014.3
20260507190044 88 159 6.0 11.0 0.00 0.00 0.00 58 1014.5
20260507185534 88 150 4.0 9.0 0.00 0.00 0.00 60 1014.6
20260507185034 88 150 2.0 9.0 0.00 0.00 0.00 60 1014.5
20260507184550 88 154 4.0 11.0 0.00 0.00 0.00 59 1014.7
20260507184035 88 144 5.0 11.0 0.00 0.00 0.00 59 1014.9
20260507183534 89 180 5.0 17.0 0.00 0.00 0.00 59 1014.9
20260507183052 89 177 5.0 17.0 0.00 0.00 0.00 59 1015.1
20260507182534 88 177 4.0 15.0 0.00 0.00 0.00 60 1015.1
20260507182035 89 279 5.0 14.0 0.00 0.00 0.00 58 1015.1
20260507181544 89 274 3.0 10.0 0.00 0.00 0.00 57 1015.2
20260507181034 89 140 2.0 9.0 0.00 0.00 0.00 57 1015.3
20260507180534 88 160 3.0 9.0 0.00 0.00 0.00 62 1015.3
20260507180048 88 0 4.0 9.0 0.00 0.00 0.00 58 1015.3
20260507175534 89 172 3.0 12.0 0.00 0.00 0.00 60 1015.3
20260507175035 89 241 4.0 12.0 0.00 0.00 0.00 60 1015.4
20260507174552 89 265 2.0 11.0 0.00 0.00 0.00 61 1015.3
20260507174034 88 165 3.0 11.0 0.00 0.00 0.00 60 1015.3
20260507173534 88 238 3.0 14.0 0.00 0.00 0.00 62 1015.4
20260507173056 88 105 4.0 14.0 0.00 0.00 0.00 60 1015.4
20260507172535 88 157 4.0 12.0 0.00 0.00 0.00 62 1015.4
20260507172035 87 141 5.0 12.0 0.00 0.00 0.00 61 1015.4
20260507171555 87 175 8.0 12.0 0.00 0.00 0.00 61 1015.4
20260507171034 88 181 2.0 11.0 0.00 0.00 0.00 62 1015.5
20260507170531 87 223 4.0 12.0 0.00 0.00 0.00 63 1015.6
20260507170049 87 127 4.0 12.0 0.00 0.00 0.00 63 1015.6
20260507165534 86 187 6.0 14.0 0.00 0.00 0.00 64 1015.6
20260507165037 86 123 9.0 16.0 0.00 0.00 0.00 64 1015.6
20260507164549 86 153 6.0 16.0 0.00 0.00 0.00 65 1015.7
20260507164034 86 144 5.0 14.0 0.00 0.00 0.00 66 1015.8
20260507163533 86 206 4.0 14.0 0.00 0.00 0.00 66 1015.8
20260507163046 86 169 6.0 12.0 0.00 0.00 0.00 68 1015.8
20260507162535 85 148 6.0 14.0 0.00 0.00 0.00 68 1016.0
20260507162037 85 125 9.0 14.0 0.00 0.00 0.00 67 1016.0
20260507161552 85 176 4.0 12.0 0.00 0.00 0.00 70 1016.0